This demonstration page uses our WeatherBlox Daily Observations layout. Learn more.

Left ArrowRight Arrow

Hourly Observations for November 29, 2020

Temp ( °F °C ) Dew Point ( °F °C ) Humidity (%) Winds ( mph kmh ) Pressure ( in mb ) Visibility ( mi km ) Precip ( " mm )
12:53 am 00:53 Clear 27 -2.8 24 -4.4 89 89 Calm 30.18 1022 7 11 0.00 0.00
1:53 am 01:53 Clear 26 -3.3 24 -4.4 92 92 Calm 30.16 1021 9 14 0.00 0.00
2:53 am 02:53 Clear 26 -3.3 24 -4.4 92 92 Calm 30.16 1021 8 13 0.00 0.00
3:53 am 03:53 Clear 24 -4.4 22 -5.6 91 91 Calm 30.18 1022 9 14 0.00 0.00
4:53 am 04:53 Clear with Mist and Fog 24 -4.4 22 -5.6 91 91 Calm 30.17 1022 6 10 0.00 0.00
5:53 am 05:53 Clear 23 -5 21 -6.1 92 92 Calm 30.17 1022 10 16 0.00 0.00
6:53 am 06:53 Clear 23 -5 21 -6.1 92 92 Calm 30.18 1022 8 13 0.00 0.00
7:53 am 07:53 Sunny 23 -5 20 -6.7 88 88 Calm 30.17 1022 8 13 0.00 0.00
8:53 am 08:53 Sunny with Mist and Fog 28 -2.2 28 -2.2 100 100 Calm 30.17 1022 5 8 0.00 0.00
9:53 am 09:53 Sunny 37 2.8 33 0.6 86 86 Calm 30.15 1021 7 11 0.00 0.00
10:53 am 10:53 Sunny 44 6.7 35 1.7 71 71 ENE 3 6 30.12 1020 10 16 0.00 0.00
11:53 am 11:53 Sunny 50 10 33 0.6 52 52 VRB 3 6 30.08 1019 10 16 0.00 0.00
12:53 pm 12:53 Sunny 52 11.1 33 0.6 49 49 VRB 5 7 30.04 1017 10 16 0.00 0.00
1:53 pm 13:53 Sunny 54 12.2 28 -2.2 37 37 SSW 3 6 30.01 1016 10 16 0.00 0.00
2:53 pm 14:53 Sunny 54 12.2 27 -2.8 35 35 Calm 29.98 1015 10 16 0.00 0.00
3:53 pm 15:53 Sunny 53 11.7 31 -0.6 43 43 Calm 29.96 1015 10 16 0.00 0.00
4:53 pm 16:53 Sunny 50 10 34 1.1 54 54 Calm 29.95 1014 10 16 0.00 0.00
5:53 pm 17:53 Clear 44 6.7 34 1.1 68 68 Calm 29.93 1014 10 16 0.00 0.00
6:53 pm 18:53 Clear 42 5.6 34 1.1 73 73 Calm 29.93 1013 10 16 0.00 0.00
7:53 pm 19:53 Clear 41 5 33 0.6 73 73 Calm 29.92 1013 10 16 0.00 0.00
8:53 pm 20:53 Clear 41 5 35 1.7 79 79 Calm 29.89 1012 10 16 0.00 0.00
9:53 pm 21:53 Clear 41 5 36 2.2 82 82 Calm 29.87 1011 10 16 0.00 0.00
10:53 pm 22:53 Cloudy 42 5.6 36 2.2 79 79 Calm 29.84 1011 10 16 0.00 0.00
11:53 pm 23:53 Cloudy 44 6.7 35 1.7 71 71 NNW 8 13 29.82 1010 10 16 0.00 0.00

Powered by AerisWeather